Time,TemperatureF,DewpointF,PressureIn,WindDirection,WindDirectionDegrees,WindSpeedMPH,WindSpeedGustMPH,Humidity,HourlyPrecipIn,Conditions,Clouds,dailyrainin,SoftwareType,DateUTC
2013-08-17 00:07:00,59.2,54.0,30.26,ENE,58,0.0,-999.0,84,-99.99,,,0.00,weatherlink.com 1.10,2013-08-17 04:07:00,
2013-08-17 00:22:00,59.0,54.0,30.26,East,88,0.0,-999.0,84,-99.99,,,0.00,weatherlink.com 1.10,2013-08-17 04:22:00,
2013-08-17 00:37:00,58.9,54.0,30.25,SE,124,0.0,-999.0,84,-99.99,,,0.00,weatherlink.com 1.10,2013-08-17 04:37:00,
2013-08-17 00:52:00,59.1,54.0,30.25,SE,124,0.0,-999.0,84,-99.99,,,0.00,weatherlink.com 1.10,2013-08-17 04:52:00,
2013-08-17 01:08:00,59.0,54.0,30.25,SE,124,0.0,-999.0,83,-99.99,,,0.00,weatherlink.com 1.10,2013-08-17 05:08:00,
2013-08-17 01:23:00,58.5,54.0,30.25,SE,124,0.0,-999.0,84,-99.99,,,0.00,weatherlink.com 1.10,2013-08-17 05:23:00,
2013-08-17 01:38:00,58.3,54.0,30.25,SE,124,0.0,-999.0,84,-99.99,,,0.00,weatherlink.com 1.10,2013-08-17 05:38:00,
2013-08-17 01:53:00,58.3,54.0,30.25,SE,124,0.0,-999.0,84,-99.99,,,0.00,weatherlink.com 1.10,2013-08-17 05:53:00,
2013-08-17 02:08:00,58.3,54.0,30.24,SE,124,0.0,-999.0,84,-99.99,,,0.00,weatherlink.com 1.10,2013-08-17 06:08:00,
2013-08-17 02:23:00,58.3,54.0,30.25,SE,124,0.0,-999.0,84,-99.99,,,0.00,weatherlink.com 1.10,2013-08-17 06:23:00,
2013-08-17 02:38:00,58.3,54.0,30.24,SE,124,0.0,-999.0,84,-99.99,,,0.00,weatherlink.com 1.10,2013-08-17 06:38:00,
2013-08-17 02:53:00,58.2,53.0,30.24,SE,124,0.0,-999.0,84,-99.99,,,0.00,weatherlink.com 1.10,2013-08-17 06:53:00,
2013-08-17 03:08:00,58.1,53.0,30.25,SE,124,0.0,-999.0,84,-99.99,,,0.00,weatherlink.com 1.10,2013-08-17 07:08:00,
2013-08-17 03:23:00,58.0,53.0,30.25,SE,124,0.0,-999.0,84,-99.99,,,0.00,weatherlink.com 1.10,2013-08-17 07:23:00,
2013-08-17 03:38:00,58.1,53.0,30.25,SE,124,0.0,-999.0,84,-99.99,,,0.00,weatherlink.com 1.10,2013-08-17 07:38:00,
2013-08-17 03:53:00,58.3,54.0,30.25,SE,124,0.0,-999.0,84,-99.99,,,0.00,weatherlink.com 1.10,2013-08-17 07:53:00,
2013-08-17 04:09:00,58.5,54.0,30.24,ESE,117,0.0,-999.0,84,-99.99,,,0.00,weatherlink.com 1.10,2013-08-17 08:09:00,
2013-08-17 04:24:00,58.7,54.0,30.24,ENE,69,0.0,-999.0,84,-99.99,,,0.00,weatherlink.com 1.10,2013-08-17 08:24:00,
2013-08-17 04:39:00,59.0,54.0,30.24,ENE,69,0.0,-999.0,84,-99.99,,,0.00,weatherlink.com 1.10,2013-08-17 08:39:00,
2013-08-17 04:54:00,59.2,54.0,30.24,NE,51,0.0,-999.0,84,-99.99,,,0.01,weatherlink.com 1.10,2013-08-17 08:54:00,
2013-08-17 05:09:00,59.3,55.0,30.24,NE,51,0.0,-999.0,84,-99.99,,,0.01,weatherlink.com 1.10,2013-08-17 09:09:00,
2013-08-17 05:24:00,59.2,54.0,30.24,ENE,61,0.0,-999.0,84,-99.99,,,0.01,weatherlink.com 1.10,2013-08-17 09:24:00,
2013-08-17 05:39:00,59.3,55.0,30.23,South,169,0.0,-999.0,84,-99.99,,,0.01,weatherlink.com 1.10,2013-08-17 09:39:00,
2013-08-17 05:54:00,59.3,55.0,30.24,SSE,163,0.0,-999.0,84,-99.99,,,0.01,weatherlink.com 1.10,2013-08-17 09:54:00,
2013-08-17 06:09:00,59.4,55.0,30.24,SSE,162,0.0,-999.0,84,-99.99,,,0.01,weatherlink.com 1.10,2013-08-17 10:09:00,
2013-08-17 06:24:00,59.4,55.0,30.24,SSE,162,0.0,-999.0,84,-99.99,,,0.01,weatherlink.com 1.10,2013-08-17 10:24:00,
2013-08-17 06:39:00,59.3,55.0,30.25,SSE,162,0.0,-999.0,84,-99.99,,,0.01,weatherlink.com 1.10,2013-08-17 10:39:00,
2013-08-17 06:54:00,59.3,55.0,30.26,SSE,162,0.0,-999.0,84,-99.99,,,0.01,weatherlink.com 1.10,2013-08-17 10:54:00,
2013-08-17 07:09:00,59.4,55.0,30.26,SSE,162,0.0,-999.0,84,-99.99,,,0.01,weatherlink.com 1.10,2013-08-17 11:09:00,
2013-08-17 07:25:00,59.5,55.0,30.27,SSE,162,0.0,-999.0,85,-99.99,,,0.01,weatherlink.com 1.10,2013-08-17 11:25:00,
2013-08-17 07:40:00,59.7,55.0,30.27,SSE,162,0.0,-999.0,85,-99.99,,,0.01,weatherlink.com 1.10,2013-08-17 11:40:00,
2013-08-17 07:55:00,59.9,55.0,30.27,SE,128,0.0,-999.0,84,-99.99,,,0.01,weatherlink.com 1.10,2013-08-17 11:55:00,
2013-08-17 08:10:00,60.2,55.0,30.27,NE,42,0.0,-999.0,84,-99.99,,,0.01,weatherlink.com 1.10,2013-08-17 12:10:00,
2013-08-17 08:25:00,60.5,56.0,30.27,East,93,0.0,-999.0,84,-99.99,,,0.01,weatherlink.com 1.10,2013-08-17 12:25:00,
2013-08-17 08:40:00,60.8,56.0,30.27,East,93,0.0,-999.0,84,-99.99,,,0.01,weatherlink.com 1.10,2013-08-17 12:40:00,
2013-08-17 08:55:00,61.2,56.0,30.27,ESE,103,0.0,-999.0,83,-99.99,,,0.01,weatherlink.com 1.10,2013-08-17 12:55:00,
2013-08-17 09:10:00,61.8,56.0,30.27,NNE,21,0.0,-999.0,82,-99.99,,,0.01,weatherlink.com 1.10,2013-08-17 13:10:00,
2013-08-17 09:25:00,62.4,57.0,30.27,NE,52,0.0,-999.0,82,-99.99,,,0.01,weatherlink.com 1.10,2013-08-17 13:25:00,
2013-08-17 09:40:00,62.6,56.0,30.27,East,89,0.0,-999.0,80,-99.99,,,0.01,weatherlink.com 1.10,2013-08-17 13:40:00,
2013-08-17 09:55:00,62.9,56.0,30.28,East,82,0.0,-999.0,78,-99.99,,,0.01,weatherlink.com 1.10,2013-08-17 13:55:00,
2013-08-17 10:11:00,63.2,56.0,30.28,East,84,0.0,-999.0,77,-99.99,,,0.01,weatherlink.com 1.10,2013-08-17 14:11:00,
2013-08-17 10:26:00,63.5,56.0,30.29,ENE,61,0.0,-999.0,77,-99.99,,,0.01,weatherlink.com 1.10,2013-08-17 14:26:00,
2013-08-17 10:41:00,64.1,56.0,30.29,ESE,103,0.0,-999.0,76,-99.99,,,0.01,weatherlink.com 1.10,2013-08-17 14:41:00,
2013-08-17 10:56:00,64.7,57.0,30.28,SE,129,0.0,-999.0,76,-99.99,,,0.01,weatherlink.com 1.10,2013-08-17 14:56:00,
2013-08-17 11:11:00,65.3,57.0,30.29,NE,36,0.0,-999.0,75,-99.99,,,0.01,weatherlink.com 1.10,2013-08-17 15:11:00,
2013-08-17 11:26:00,65.2,57.0,30.29,NNE,20,0.0,-999.0,75,-99.99,,,0.01,weatherlink.com 1.10,2013-08-17 15:26:00,
2013-08-17 11:41:00,65.2,57.0,30.29,NNE,27,0.0,-999.0,75,-99.99,,,0.01,weatherlink.com 1.10,2013-08-17 15:41:00,
2013-08-17 11:56:00,65.3,57.0,30.30,NE,47,0.0,-999.0,75,-99.99,,,0.01,weatherlink.com 1.10,2013-08-17 15:56:00,
2013-08-17 12:11:00,65.2,57.0,30.28,NNW,338,0.0,-999.0,75,-99.99,,,0.01,weatherlink.com 1.10,2013-08-17 16:11:00,
2013-08-17 12:26:00,65.1,57.0,30.28,East,88,0.0,-999.0,75,-99.99,,,0.01,weatherlink.com 1.10,2013-08-17 16:26:00,
2013-08-17 12:41:00,65.1,57.0,30.28,ESE,103,0.0,-999.0,75,-99.99,,,0.01,weatherlink.com 1.10,2013-08-17 16:41:00,
2013-08-17 12:57:00,65.3,57.0,30.27,NNE,31,0.0,-999.0,75,-99.99,,,0.01,weatherlink.com 1.10,2013-08-17 16:57:00,
2013-08-17 13:12:00,65.5,58.0,30.26,NE,39,7.0,-999.0,76,-99.99,,,0.01,weatherlink.com 1.10,2013-08-17 17:12:00,
2013-08-17 13:27:00,65.3,58.0,30.25,NNE,32,0.0,-999.0,76,-99.99,,,0.01,weatherlink.com 1.10,2013-08-17 17:27:00,
2013-08-17 13:42:00,65.3,58.0,30.25,South,180,1.0,-999.0,78,-99.99,,,0.01,weatherlink.com 1.10,2013-08-17 17:42:00,
2013-08-17 13:57:00,65.2,58.0,30.25,East,93,1.0,-999.0,78,-99.99,,,0.01,weatherlink.com 1.10,2013-08-17 17:57:00,
2013-08-17 14:12:00,64.9,58.0,30.25,ESE,103,2.0,-999.0,78,-99.99,,,0.01,weatherlink.com 1.10,2013-08-17 18:12:00,
2013-08-17 14:27:00,64.8,58.0,30.24,West,270,0.0,-999.0,78,-99.99,,,0.01,weatherlink.com 1.10,2013-08-17 18:27:00,
2013-08-17 14:42:00,64.9,58.0,30.24,East,80,0.0,-999.0,79,-99.99,,,0.02,weatherlink.com 1.10,2013-08-17 18:42:00,
2013-08-17 14:57:00,64.8,59.0,30.25,NE,48,0.0,-999.0,80,-99.99,,,0.02,weatherlink.com 1.10,2013-08-17 18:57:00,
2013-08-17 15:12:00,64.8,59.0,30.24,ESE,120,0.0,-999.0,81,-99.99,,,0.02,weatherlink.com 1.10,2013-08-17 19:12:00,
2013-08-17 15:27:00,64.8,59.0,30.24,East,80,0.0,-999.0,81,-99.99,,,0.03,weatherlink.com 1.10,2013-08-17 19:27:00,
2013-08-17 15:42:00,64.9,59.0,30.24,ENE,66,0.0,-999.0,81,-99.99,,,0.03,weatherlink.com 1.10,2013-08-17 19:42:00,
2013-08-17 15:57:00,64.8,59.0,30.24,NE,39,0.0,-999.0,81,-99.99,,,0.04,weatherlink.com 1.10,2013-08-17 19:57:00,
2013-08-17 16:12:00,64.5,59.0,30.24,NNE,22,0.0,-999.0,81,-99.99,,,0.04,weatherlink.com 1.10,2013-08-17 20:12:00,
2013-08-17 16:28:00,64.2,58.0,30.23,ENE,75,0.0,-999.0,81,-99.99,,,0.04,weatherlink.com 1.10,2013-08-17 20:28:00,
2013-08-17 16:43:00,64.2,59.0,30.23,ENE,71,0.0,-999.0,82,-99.99,,,0.05,weatherlink.com 1.10,2013-08-17 20:43:00,
2013-08-17 16:58:00,64.2,59.0,30.23,NNE,27,0.0,-999.0,83,-99.99,,,0.05,weatherlink.com 1.10,2013-08-17 20:58:00,
2013-08-17 17:13:00,64.3,59.0,30.23,West,281,0.0,-999.0,82,-99.99,,,0.05,weatherlink.com 1.10,2013-08-17 21:13:00,
2013-08-17 17:28:00,64.4,59.0,30.23,NNE,21,0.0,-999.0,82,-99.99,,,0.05,weatherlink.com 1.10,2013-08-17 21:28:00,
2013-08-17 17:43:00,64.2,59.0,30.23,NE,53,4.0,-999.0,82,-99.99,,,0.05,weatherlink.com 1.10,2013-08-17 21:43:00,
2013-08-17 17:58:00,63.9,59.0,30.24,SSW,192,0.0,-999.0,83,-99.99,,,0.05,weatherlink.com 1.10,2013-08-17 21:58:00,
2013-08-17 18:13:00,63.8,59.0,30.23,NE,43,0.0,-999.0,83,-99.99,,,0.06,weatherlink.com 1.10,2013-08-17 22:13:00,
2013-08-17 18:28:00,63.6,59.0,30.23,East,87,0.0,-999.0,84,-99.99,,,0.07,weatherlink.com 1.10,2013-08-17 22:28:00,
2013-08-17 18:43:00,63.5,59.0,30.23,East,93,0.0,-999.0,84,-99.99,,,0.07,weatherlink.com 1.10,2013-08-17 22:43:00,
2013-08-17 18:58:00,63.4,59.0,30.24,ENE,59,0.0,-999.0,84,-99.99,,,0.07,weatherlink.com 1.10,2013-08-17 22:58:00,
2013-08-17 19:13:00,63.4,59.0,30.24,ENE,59,0.0,-999.0,84,-99.99,,,0.08,weatherlink.com 1.10,2013-08-17 23:13:00,
2013-08-17 19:28:00,63.4,59.0,30.24,NE,55,0.0,-999.0,84,-99.99,,,0.08,weatherlink.com 1.10,2013-08-17 23:28:00,
2013-08-17 19:44:00,63.4,59.0,30.24,NE,56,0.0,-999.0,85,-99.99,,,0.15,weatherlink.com 1.10,2013-08-17 23:44:00,
2013-08-17 19:59:00,63.2,59.0,30.24,NE,56,0.0,-999.0,85,-99.99,,,0.17,weatherlink.com 1.10,2013-08-17 23:59:00,
2013-08-17 20:14:00,63.2,59.0,30.23,NE,56,0.0,-999.0,85,-99.99,,,0.18,weatherlink.com 1.10,2013-08-18 00:14:00,
2013-08-17 20:29:00,63.1,59.0,30.23,NE,56,0.0,-999.0,85,-99.99,,,0.18,weatherlink.com 1.10,2013-08-18 00:29:00,
2013-08-17 20:44:00,63.0,59.0,30.23,NE,56,0.0,-999.0,85,-99.99,,,0.18,weatherlink.com 1.10,2013-08-18 00:44:00,
2013-08-17 20:59:00,62.9,58.0,30.23,ENE,62,0.0,-999.0,85,-99.99,,,0.18,weatherlink.com 1.10,2013-08-18 00:59:00,
2013-08-17 21:14:00,62.8,58.0,30.24,ENE,74,0.0,-999.0,85,-99.99,,,0.19,weatherlink.com 1.10,2013-08-18 01:14:00,
2013-08-17 21:29:00,62.8,58.0,30.24,ENE,73,0.0,-999.0,85,-99.99,,,0.19,weatherlink.com 1.10,2013-08-18 01:29:00,
2013-08-17 21:44:00,62.7,58.0,30.25,East,88,0.0,-999.0,85,-99.99,,,0.20,weatherlink.com 1.10,2013-08-18 01:44:00,
2013-08-17 21:59:00,62.7,58.0,30.25,East,86,0.0,-999.0,85,-99.99,,,0.20,weatherlink.com 1.10,2013-08-18 01:59:00,
2013-08-17 22:14:00,62.7,58.0,30.25,ESE,103,0.0,-999.0,85,-99.99,,,0.20,weatherlink.com 1.10,2013-08-18 02:14:00,
2013-08-17 22:29:00,62.7,58.0,30.25,NE,36,0.0,-999.0,85,-99.99,,,0.21,weatherlink.com 1.10,2013-08-18 02:29:00,
2013-08-17 22:44:00,62.7,58.0,30.24,NE,49,0.0,-999.0,85,-99.99,,,0.21,weatherlink.com 1.10,2013-08-18 02:44:00,
2013-08-17 22:59:00,62.6,58.0,30.24,NE,49,0.0,-999.0,85,-99.99,,,0.22,weatherlink.com 1.10,2013-08-18 02:59:00,
2013-08-17 23:15:00,62.6,58.0,30.24,NE,49,0.0,-999.0,85,-99.99,,,0.22,weatherlink.com 1.10,2013-08-18 03:15:00,
2013-08-17 23:30:00,62.7,58.0,30.25,NE,49,0.0,-999.0,85,-99.99,,,0.22,weatherlink.com 1.10,2013-08-18 03:30:00,
2013-08-17 23:45:00,62.7,59.0,30.25,NE,49,0.0,-999.0,86,-99.99,,,0.22,weatherlink.com 1.10,2013-08-18 03:45:00,